Regional Weather Roundup
Issued by NWS Charleston, SC

Current Version | Previous Version | Graphics & Text | Print | Product List | Glossary On
Versions: 1 2 3 4 5 6 7 8 9 10 11 12 13 14 15 16 17 18 19 20 21 22 23 24 25 26 27 28 29 30 31 32 33 34 35 36 37 38 39 40 41 42 43 44 45 46 47 48 49 50
000 ASUS42 KCHS 130311 RWRCHS REGIONAL WEATHER ROUNDUP NATIONAL WEATHER SERVICE CHARLESTON SC 1000 PM EST TUE DEC 12 2017 NOTE: "FAIR" INDICATES FEW OR NO CLOUDS BELOW 12,000 FEET WITH NO SIGNIFICANT WEATHER AND/OR OBSTRUCTIONS TO VISIBILITY. NOT ALL STATIONS ARE QUALITY CONTROLLED. USE DATA WITH CAUTION... ESPECIALLY DEWPOINT OBSERVATIONS. SCZ027-030-031-034>040-042>050-130400- ...SOUTHEAST SOUTH CAROLINA... CITY SKY/WX TMP DP RH WIND PRES REMARKS N CHARLESTON CLEAR 47 29 49 W15G23 29.86R WATERFRONT PRK N/A 49 31 49 W9G23 29.70R JOHNS ISLAND FAIR 48 30 49 W20G29 29.86R PINOPOLIS N/A 48 36 61 W20 29.76R MONCKS CORNER FAIR 45 28 53 NW5 29.85R SUMMERVILLE FAIR 45 30 57 W9G17 29.88R BEAUFORT MCAS CLEAR 48 32 53 W14 29.90R BEAUFORT ARPT FAIR 46 32 57 W15 29.90R HILTON HEAD IS CLEAR 48 28 46 NW13G24 29.91R WALTERBORO CLEAR 45 30 57 W10G20 29.89R ALLENDALE FAIR 46 27 46 VRB7G15 29.89S ...SOUTHERN MIDLANDS AND PEE DEE... CITY SKY/WX TMP DP RH WIND PRES REMARKS GEORGETOWN FAIR 46 28 49 W16G25 29.82R KINGSTREE FAIR 43 21 42 NW13 29.84R ORANGEBURG CLEAR 44 28 53 W14 29.87R BARNWELL N/A 45 28 53 W8G16 29.90R AIKEN FAIR 39 28 65 W6 29.91S WCI 35 MANNING FAIR 46 -13 8 MISG 29.85R COLUMBIA CLEAR 44 24 45 W10 29.87R SUMTER PTCLDY 42 20 41 NW8 29.84R FLORENCE CLEAR 43 20 39 N12 29.83R MYRTLE BEACH CLEAR 49 31 49 NW18G25 29.80R N MYRTLE BEACH CLEAR 48 26 42 NW9G25 29.78R $$ GAZ063-065-086>088-099>101-113>116-118-119-134>141-150-130400- ...SOUTHEAST GEORGIA... CITY SKY/WX TMP DP RH WIND PRES REMARKS SAVANNAH ARPT CLEAR 47 31 53 W15G24 29.93R HUNTER AAF CLEAR 47 31 52 W12 29.90R FORT STEWART CLEAR 47 30 52 W8 29.93R STATESBORO CLEAR 46 27 47 NW9G17 29.94R SYLVANIA CLEAR 45 33 61 NW10G16 29.93R CLAXTON FAIR 47 32 55 W12 29.95R ...CSRA...CENTRAL AND FAR SOUTHEAST GEORGIA... CITY SKY/WX TMP DP RH WIND PRES REMARKS THOMSON CLEAR 40 24 53 N8 29.97S WCI 35 AUGUSTA-BUSH CLEAR 44 25 47 W15 29.91S AUGUSTA-DANIEL CLEAR 44 25 47 W12G21 29.91S SWAINSBORO FAIR 43 32 65 W8 29.95F VIDALIA CLEAR 45 34 65 W7 29.97R EASTMAN FAIR 45 26 46 W5 30.01S HAZLEHURST FAIR 47 23 39 W3 29.97S ALMA CLEAR 48 32 53 NW10 29.98R WAYCROSS CLEAR 46 31 57 W6 30.00R JESUP NOT AVBL BAXLEY FAIR 45 32 61 NW9 29.98R BRUNSWICK CLEAR 48 32 53 W7 29.97R SAINT SIMONS CLEAR 49 36 61 W8 29.96R $$ SCZ027-028-034-036>038-045-046-048>050-GAZ119-141-130400- ...LAKE AND SUPPLEMENTAL COASTAL OBSERVATIONS... STATION/POSITION TIME TEMP WIND PRES WAVE SWELL AIR SEA DIR/SP/G HT/PER HT/PER/DIR (UTC) (F) (DEG/KT/KT) (MB) (FT/S) (FT/S/D) WINYAH BAY NOT AVBL LAKE MURRAY 0220 44 280/ 10/ 15 1010.5 ACE BASIN NERRS 0145 49 280/ 5 1011.0 FORT PULASKI 0242 50 55 290/ 22/ 27 1013.1R SAPELO ISLAND NOT AVBL $$ ANZ835-935-AMZ111-154-330-350-352-354-370-450-454-472-130400- ...C-MAN AND BUOY OBSERVATIONS... STATION/POSITION TIME TEMP WIND PRES WAVE SWELL AIR SEA DIR/SP/G HT/PER HT/PER/DIR (UTC) (F) (DEG/KT/KT) (MB) (FT/S) (FT/S/D) BUOY 41004 0250 56 74 290/ 29/ 37 1009.0R 9/ 8 BUOY 41008 0250 54 60 290/ 25/ 29 1013.2R 4/ 4 FOLLY BEACH CMAN 0200 49 280/ 11/ 16 1010.5R CAPERS NEARSHORE 0208 49 58 290/ 21/ 31 1009.1R FRIPP NEARSHORE 0208 49 56 270/ 29/ 43 1011.5R STATION/POSITION TIME TEMP WIND PRES WAVE SWELL AIR SEA DIR/SP/G HT/PER HT/PER/DIR (UTC) (F) (DEG/KT/KT) (MB) (FT/S) (FT/S/D) 5E ST. MARYS GA 0230 62 N/A 3/ 3 FRYING PAN BUOY 0250 57 63 280/ 29/ 37 1006.0R 8/ 7 2/300/13 BUOY 41025 0250 54 71 300/ 23/ 31 1002.1R 9/ 8 5/200/ 8 CAPE LOOKOUT NC 0200 290/ 17/ 21 1003.5F BUOY 41002 0150 67 75 280/ 35/ 41 1002.6 15/ 9 BUOY 41010 NOT AVBL ST AUGUSTINE FL 0300 54 62 300/ 7/ 11 1015.4R $$

USA.gov is the U.S. government's official web portal to all federal, state and local government web resources and services.